This is the latest recevied weather packets stored in our database for station/object AE5HO. If no packets are shown the sender has not sent any weather packets the latest 10 day(s).
| Time | Temp. | Humidity | Pressure | Rain* | Wind** | Luminosity | Snow |
|---|---|---|---|---|---|---|---|
| 1777423090 | 25° C | 97% | 1008.9 hPa | 0 mm | - | 7 W/m² | - |
| 1777422786 | 25° C | 97% | 1009.1 hPa | 0 mm | - | 11 W/m² | - |
| 1777422481 | 25° C | 97% | 1009.2 hPa | 0 mm | - | 12 W/m² | - |
| 1777422177 | 25° C | 97% | 1009.5 hPa | 0 mm | - | 18 W/m² | - |
| 1777421877 | 25° C | 98% | 1009.1 hPa | 0 mm | - | 23 W/m² | - |
| 1777421577 | 25° C | 98% | 1009.2 hPa | 0 mm | - | 31 W/m² | - |
| 1777421273 | 24.44° C | 98% | 1009.3 hPa | 0 mm | - | 35 W/m² | - |
| 1777420969 | 24.44° C | 98% | 1009.3 hPa | 0 mm | - | 40 W/m² | - |
| 1777420666 | 24.44° C | 98% | 1009.3 hPa | 0 mm | - | 59 W/m² | - |
| 1777420362 | 23.89° C | 98% | 1009.2 hPa | 0 mm | - | 48 W/m² | - |
| 1777420058 | 23.33° C | 97% | 1009.2 hPa | 0 mm | - | 34 W/m² | - |
| 1777419755 | 23.89° C | 97% | 1009.3 hPa | 0 mm | - | 39 W/m² | - |
| 1777419452 | 23.89° C | 97% | 1009.8 hPa | 0 mm | - | 38 W/m² | - |
| 1777419152 | 23.89° C | 97% | 1009.3 hPa | 0 mm | - | 34 W/m² | - |
| 1777418846 | 23.33° C | 97% | 1009.2 hPa | 0 mm | - | 37 W/m² | - |
| 1777418543 | 23.33° C | 97% | 1009.3 hPa | 0 mm | - | 51 W/m² | - |
| 1777418240 | 23.33° C | 97% | 1008.9 hPa | 0 mm | - | 54 W/m² | - |
| 1777417935 | 25° C | 97% | 1008.6 hPa | 0 mm | - | 37 W/m² | - |
| 1777417632 | 25° C | 97% | 1008.8 hPa | 0.51 mm | - | 27 W/m² | - |
| 1777417327 | 25° C | 97% | 1008.8 hPa | 1.78 mm | - | 16 W/m² | - |
| 1777417024 | 25° C | 96% | 1009.5 hPa | 1.78 mm | - | 10 W/m² | - |
| 1777416719 | 25° C | 96% | 1009.6 hPa | 5.33 mm | - | 6 W/m² | - |
| 1777416415 | 25° C | 95% | 1009.1 hPa | 9.65 mm | - | 4 W/m² | - |
| 1777416109 | 25.56° C | 94% | 1010.1 hPa | 11.94 mm | - | 0 W/m² | - |
| 1777415804 | 25.56° C | 92% | 1010.7 hPa | 16.26 mm | - | 0 W/m² | - |
* Rain latest hour (hover to see other rain measurements)
** Current wind speed in m/s (hover to see current wind gust speed)